Location: Unspecified
(41.1637°N, 24.2901°E)
Time: 01:56:58
(UTC+01:00)

ISS - Pass Details

Date: 17 January 2026
Orbit: 413 x 424 km, 51.6° (Epoch: 16 January)

Event Time Altitude Azimuth Distance (km) Brightness Sun altitude
Rises 18:39:51 0° 293° (WNW) 2,352 1.0 -25.8°
Reaches altitude 10° 18:42:42 10° 320° (NW) 1,491 -0.6 -26.3°
Enters shadow 18:43:01 11° 325° (NW) 1,425 -0.7 -26.3°
